GFSSGP_con_sbcape_072.txt.gz
CAPE
962 990 902 619 929 0 0 50 191 262 413 597 505 618 805 939 893 1164 1347 1639 1652 1673 1904 2058 2859 2624 2232 2433 2432 2716 2835 2692 2395 2418 2216 1977 1819 1768 1773 1981 1840 1775 1621 1574 1554 1669 1464 708 739
778 720 780 1233 143 0 0 5 37 254 573 596 574 658 656 1183 1213 1207 1467 1724 1696 1797 1802 1888 2861 2955 2460 2620 2571 2462 2281 2436 2458 2371 2236 2038 2124 2107 1825 1830 1826 1595 1667 1628 1742 1735 1132 711 665
718 715 1463 442 0 3 4 6 111 320 465 429 476 522 515 932 888 1088 1508 1761 1870 1865 1805 2456 3012 2673 2527 2600 2543 2632 2601 2577 2614 2467 2362 2181 2185 2268 2027 1732 2035 1712 1860 1622 1569 1314 872 614 722
823 1272 1344 146 4 56 26 30 147 232 181 252 282 428 865 975 1027 1252 1615 1811 1977 1890 2071 2443 2876 2414 2453 2485 2503 2351 2527 2577 2563 2491 2328 2155 2166 1982 1722 1706 1619 1832 1727 1770 1598 1299 1032 1089 1358
1122 774 9 0 21 101 153 184 175 48 186 329 177 446 871 1380 1413 1727 1661 1833 2011 1957 2159 2421 3034 3205 2956 2531 2455 2519 2564 2510 2388 2401 2021 1832 1884 1726 1716 1803 1656 1616 1794 1605 1422 1324 1016 1455 1329
650 169 8 2 8 149 306 357 230 66 258 339 284 426 904 1493 1452 1780 1508 1712 1805 1896 2032 2339 2743 2813 3022 2593 2559 2537 2521 2506 2382 2341 2277 2303 2206 2028 1809 1540 1471 1640 1768 1410 1412 1317 1194 1134 1132
822 23 0 0 9 31 173 458 241 117 144 217 333 553 695 867 1261 1416 1533 1647 1780 1844 1900 2216 2500 2750 2886 2638 2553 2562 2465 2481 2439 2462 2325 2152 2356 2069 1919 2191 1970 1517 1558 1586 1160 1268 1598 1108 813
798 43 8 3 21 10 173 314 312 225 261 364 467 408 736 895 1313 1463 1694 1891 1888 1848 1903 2293 2508 2443 2859 2664 2621 2580 2179 2335 2155 2383 2240 2090 2040 1908 1935 2095 2045 2037 1595 1441 1532 1420 1546 1120 865
328 53 17 4 13 32 209 240 452 548 520 439 471 571 740 1035 1175 1449 1680 1895 2005 1938 1901 1951 2198 2348 2393 2465 2639 2520 2416 2355 2306 2376 2266 1878 1631 1720 1475 1760 1822 1953 1780 1648 1321 1395 1680 1462 1187
215 1 0 0 7 34 165 322 435 675 594 692 678 1057 1090 1093 1361 1556 1693 1574 1781 1770 1876 1892 1911 2030 2219 1738 2407 2280 2192 2023 1959 1998 1989 1992 1502 1647 1535 1425 1415 1559 1532 1509 1526 1177 1419 1619 591
15 0 0 0 3 5 133 317 527 603 452 373 579 864 1347 1139 1429 1552 1572 1548 1508 1692 1810 1983 2076 2029 1834 1609 1720 2012 2112 2783 2214 2170 2126 1888 1893 1842 1390 1278 1486 1226 1479 1209 1126 1216 818 801 602
0 0 0 0 0 13 67 176 473 569 346 233 340 726 1295 1412 1319 1382 1767 1701 1590 1852 1832 1982 2163 2274 2045 1824 1701 1569 1978 2120 1260 332 1534 1613 1993 2033 1505 1204 1032 1566 1812 1378 1205 1059 1329 1345 1231
0 0 0 0 0 3 59 127 252 467 478 494 462 632 1138 1321 1428 1368 1583 1861 1857 1957 1997 1887 2239 2538 2416 2307 1871 1723 1742 1340 585 661 1235 1432 863 1388 1811 1547 1925 1724 2133 2188 1402 943 1187 1148 1155
0 0 0 0 16 29 52 78 181 207 456 643 625 704 886 1053 1362 1586 1720 1989 2142 1972 2098 2000 2168 2567 2496 2370 2511 2293 1921 1610 1593 634 241 1101 1720 1671 1334 1117 2018 2618 2191 2973 1847 977 1023 1233 1046
0 0 0 8 65 43 63 89 156 183 525 787 822 784 890 1011 1218 1515 1817 2124 2226 2242 2174 2340 2394 2456 2669 2666 2742 2623 2250 2385 2295 1788 198 225 828 723 1167 1222 1861 1337 2055 1774 2632 1762 1380 1135 1239
0 0 14 32 42 90 144 119 169 202 504 818 935 985 945 1060 1204 1401 1638 2009 2221 2420 2701 2731 2463 2434 2734 2903 3281 2777 2559 2599 2997 1688 1506 137 280 326 714 1066 781 1202 1300 2064 1960 2228 2245 1087 706
0 0 38 39 3 126 152 100 130 244 417 715 983 1107 1248 1131 1324 1551 1665 1911 2146 2661 2914 3183 3079 2888 3104 2836 2921 3150 2949 2698 2073 883 900 494 564 234 295 589 477 788 1152 1901 2033 1310 1164 842 796
0 2 2 3 23 62 18 55 23 316 363 536 724 1084 1385 1454 1403 1498 1756 1752 2018 2590 3093 3255 3169 3117 3412 2795 3244 2993 2626 1943 932 780 859 1283 500 518 161 220 557 1092 1406 1306 1070 958 826 743 706
0 0 0 0 0 0 0 0 0 8 170 385 653 1123 1363 1444 1344 1525 1647 1821 2036 2416 2903 3199 3207 3357 3016 2540 2237 2147 2867 1517 711 584 922 965 1255 325 675 466 374 364 749 1278 889 967 957 914 953
0 0 0 0 0 0 0 0 0 0 4 100 322 806 1214 1291 1267 1393 1873 2006 2101 2294 2852 3106 2830 2722 2492 1567 612 2563 2119 1110 683 627 775 878 1019 1145 785 337 290 460 364 442 543 634 762 1638 1798
0 0 0 0 0 0 0 0 0 0 0 36 120 325 835 1133 1116 1464 1918 2187 2123 2463 2684 1812 2143 2256 1780 1233 1867 1969 1291 961 788 488 854 872 830 1046 1158 983 929 1748 1319 1488 1516 1752 1375 1686 1612
0 0 0 0 0 0 14 0 3 0 0 0 46 161 433 864 1042 1238 1885 2364 2281 2926 1678 575 752 1750 1817 2098 2149 2166 1732 1688 988 464 517 984 1049 984 971 1011 1144 1332 1040 2056 1544 1906 1489 1457 1123
0 0 0 0 0 0 0 0 10 1 0 9 173 229 255 510 953 1230 1557 2297 2719 1856 584 735 359 945 1430 1618 1247 1263 1411 1857 1611 770 1152 1936 1837 1465 1200 1406 1250 1291 1657 1488 1287 1254 1363 1117 703
0 0 0 0 0 0 0 13 0 60 7 0 143 456 651 411 539 1045 1492 2621 2230 1417 832 390 88 37 737 496 979 1668 1818 1984 1863 1112 2322 2444 2483 2339 1441 1244 1290 1042 1015 832 760 806 1022 1244 1329
0 0 0 0 0 0 17 0 0 5 0 24 616 783 639 624 722 955 1829 2623 2138 1408 888 247 507 563 588 670 1271 1812 2030 2158 2250 1816 1305 1378 1115 1626 1476 1247 1107 813 649 481 579 981 1031 1065 1047
0 0 0 0 0 11 1 0 0 0 16 492 867 899 466 865 1100 1340 2159 2557 2231 1495 849 436 945 1258 1474 914 949 1011 1500 1561 1146 1577 1540 1291 422 374 413 413 329 410 264 227 283 572 499 565 724
0 0 0 0 0 0 4 0 0 0 0 7 707 1075 950 1363 1857 2185 2178 2935 2006 1814 1233 1039 973 1556 1773 1312 1802 1621 2107 1776 1659 1608 1129 1303 421 129 127 350 417 214 157 243 474 601 558 869 910
0 0 0 0 0 2 0 0 0 0 0 129 982 1561 1470 1538 1956 2416 2859 3277 2120 2011 1618 1458 1395 1842 1903 1713 2676 2512 2432 2082 1759 1505 863 879 1079 395 59 280 431 266 290 230 322 425 407 534 651
0 0 0 1 4 19 19 15 0 0 188 937 1671 1909 1809 1727 1808 2180 1836 2097 2131 2286 2606 1727 1039 1531 2069 2175 2340 2324 1774 1409 1127 1111 1078 985 1123 938 737 504 348 209 237 217 261 267 239 406 607
0 0 0 0 9 0 0 1 277 413 604 886 1878 2029 2206 2129 2123 1746 1758 1754 1858 2353 3084 2154 1647 2391 2156 2019 1903 1750 1033 1043 1181 1075 1187 1247 1154 833 570 350 150 71 5 1 30 119 269 418 538

GFSSGP_con_sbcape_078.txt.gz
CAPE
732 456 827 1671 2097 1533 15 48 137 212 201 211 362 393 865 817 692 918 1221 1551 1383 938 1511 1948 3149 3003 3057 2941 2945 2723 2382 2190 1924 2036 2048 1711 1683 1603 1734 1632 1514 1377 1546 1519 1408 1404 1320 1227 918
398 804 1261 1768 1682 0 0 32 113 248 271 115 351 522 626 796 828 1088 1224 1821 1446 999 772 1389 3007 3082 2937 3055 3084 2840 2256 2066 2063 2329 2102 1956 1642 1726 1904 1649 1745 1537 1433 1614 1558 1363 1005 831 1075
852 1541 1321 1946 20 2 13 58 55 67 117 253 400 406 579 598 830 1151 1097 1640 1486 1176 868 2102 2989 2929 2492 2653 2847 2874 2713 2446 2403 2398 2231 1908 1801 1829 1484 1853 1736 1744 1658 1445 1497 1258 870 651 901
1769 1798 1561 618 1 0 0 0 2 54 69 113 442 475 549 618 912 1138 1001 1483 1219 1414 1655 2776 3059 2484 2475 2430 2560 2432 2360 2349 2269 2206 2118 1768 1793 1685 1548 1598 1725 1753 1663 1520 1525 892 757 805 988
1430 1421 1363 17 19 14 0 0 0 0 31 101 507 623 839 956 1076 1079 1001 1049 1369 1692 1723 1813 3165 2976 2615 2550 2674 2726 2642 2571 2453 2363 2252 1963 2049 1848 1729 1647 1671 1724 1673 1575 1491 853 1216 985 1332
1653 1219 595 49 1 20 27 1 0 14 73 189 392 802 952 862 918 934 937 1698 1580 2411 2045 1620 2773 2873 2536 2505 2191 2399 2393 2400 2389 2202 1791 1689 1755 1562 1433 1426 1443 1568 1640 1648 1526 1259 1523 1261 1428
1313 883 57 4 9 43 8 0 0 0 1 94 277 604 752 830 891 918 983 1501 2256 2152 2250 2367 2026 2308 2426 2400 2336 2387 2312 2304 2194 2094 2088 2017 1879 1778 1616 1544 1465 1550 1718 1423 1459 1435 1149 1400 1281
644 284 233 81 60 49 75 10 14 0 20 149 316 601 657 951 884 937 954 1268 1296 2337 2386 2387 2665 2589 2539 2070 2381 2270 2212 2197 2132 2152 1960 1814 1839 1880 1665 2036 2138 1567 1496 1548 1137 1209 1479 1168 990
193 209 97 34 53 48 104 46 161 190 194 17 122 431 617 752 865 1052 1128 1049 1402 2298 2262 2143 2557 3099 3098 2944 2342 2708 2237 2105 1977 2008 1937 1865 1877 1700 1440 1892 2201 1785 1673 1522 1507 1361 1620 1301 1048
66 107 172 16 0 46 75 126 186 239 25 124 232 463 596 745 1037 1258 1308 1271 1277 965 1942 2015 2363 2530 2895 2159 2895 2515 2120 1877 1973 1969 2387 2099 1849 1738 1638 2178 1563 1506 1891 1625 1470 1535 1608 1555 699
1 1 2 29 0 2 27 88 186 170 43 300 343 508 556 888 1187 1296 1239 1208 1320 1436 1304 2271 2156 2586 1990 1863 2399 2247 2265 2528 2365 2432 1996 2663 1951 2055 1513 1970 1565 1639 1950 1454 1770 1589 1148 1051 798
0 1 15 8 0 0 23 59 158 74 185 208 479 550 483 840 1039 1259 1329 1278 1319 1573 1438 1354 2237 2926 2701 2760 2644 2292 2084 2569 2533 1784 390 2207 1684 2081 2323 1556 1648 1395 1710 1127 1226 860 917 901 1060
3 2 6 4 8 0 0 0 40 50 191 154 493 503 525 694 877 1164 1161 1144 1346 1731 1868 2183 2977 3674 3532 3283 3485 2571 1787 2414 2153 1948 163 2105 2419 1730 2073 1888 1239 1106 1227 1902 2162 844 1392 1383 484
0 0 0 0 0 12 0 1 37 30 120 277 360 462 531 560 721 982 1199 1391 1398 1781 2100 2682 2929 3518 3454 3197 3114 2840 3227 2594 1910 1572 154 778 1869 1881 1503 1993 1622 1759 2204 2370 2642 1846 1604 1198 1712
0 0 0 0 0 9 28 9 9 2 68 370 310 489 764 907 740 976 1261 1674 1557 1932 1990 3012 3231 3308 3507 3827 4042 3345 2782 2568 2586 1882 738 266 495 523 1705 1352 2465 1833 2507 2644 2664 1573 1342 1461 1642
0 0 0 0 1 31 6 22 13 1 33 301 451 520 630 904 791 998 1238 1854 2023 1889 2612 2912 2391 3183 3595 3666 3633 2328 2207 1968 1425 2000 2000 437 91 288 1152 1223 1223 1511 1806 2308 2481 2060 1578 1661 1685
0 0 0 0 44 44 44 24 42 30 56 311 559 773 681 899 1170 1512 1269 1420 1953 2645 3222 3433 3481 3421 3733 3511 3112 1967 805 915 1449 2010 1849 1964 437 585 835 1222 1044 1241 1455 1893 2064 1720 1612 1441 1190
0 0 0 0 36 47 40 0 8 3 10 87 189 1037 1061 887 882 1233 1355 1334 1976 3023 3318 3765 3924 4128 4302 3480 3241 2667 700 1180 2178 1974 1861 2428 1197 651 977 775 857 1523 1284 954 1877 1718 1265 1497 1293
0 0 0 0 0 0 0 0 0 0 0 22 305 825 1292 1151 1080 1088 1149 1433 1880 2766 3728 4215 4321 4285 4300 3436 2571 1621 794 1719 1961 2129 2183 2256 1964 1055 567 689 334 1122 1023 1184 1340 915 1415 746 1123
0 0 0 0 0 0 0 0 0 0 10 4 25 290 864 1033 1309 1308 1451 1558 1831 2711 3864 4413 4280 4395 4515 4097 1426 1229 1614 1760 2547 2729 2092 1822 2069 1427 720 156 722 995 1037 979 283 407 976 1598 1373
0 0 0 0 0 0 0 0 0 0 0 1 22 59 364 897 1163 1706 1663 1637 1733 2915 3850 4466 4428 4755 4645 3894 1827 1283 964 2731 2894 2302 1959 1686 2044 1583 1243 1054 661 606 235 78 46 177 280 225 1576
0 0 0 0 0 0 0 0 1 0 28 36 14 39 3 979 1331 2043 1939 1940 1805 2696 3812 4597 4709 4886 4278 4028 2350 1885 2442 2454 2468 1917 1721 1836 1773 2029 1672 1202 1136 773 254 245 234 544 404 322 573
0 0 0 0 0 0 0 0 0 36 170 43 82 45 34 236 947 1859 2221 2267 2189 2873 4248 4475 4538 3473 3264 3803 3402 3227 3173 2865 2449 2948 1699 2069 2663 1919 1733 1659 1370 1548 1800 1175 853 1019 999 928 667
0 0 0 0 0 0 0 0 0 0 28 6 31 271 62 44 239 1244 2327 2631 2645 4096 4067 3901 2526 1673 1816 2915 2957 3218 2592 2927 2735 2001 1276 2393 2298 1949 920 1314 1511 1711 1673 1589 1478 1514 1346 576 703
0 0 0 0 0 0 0 0 0 6 55 24 11 100 38 93 269 1238 2732 2899 3905 3472 3245 2438 2203 1427 1326 1884 2397 2411 2303 2724 3105 2861 2458 2587 2217 2058 1304 593 643 1498 1874 1750 1444 1296 1237 1294 1288
0 0 0 0 0 0 49 2 29 81 69 0 0 14 97 174 572 1277 3054 3528 3883 2545 2031 1614 1639 1312 2212 2489 2726 3030 3341 3010 3475 2877 2978 2629 1772 1240 1232 490 497 685 959 1014 1029 1243 1279 1014 901
0 0 0 0 0 0 0 18 68 138 0 0 23 257 428 1057 949 1921 3809 3903 3750 3153 2348 2131 1786 2622 2699 2439 2632 3133 3368 3054 3264 2799 2817 1732 1513 978 581 462 341 719 678 742 1174 947 757 816 1050
0 0 0 0 3 14 1 106 250 298 65 802 1171 1227 1730 1800 1392 3424 3682 3735 3561 3118 2813 2451 2305 2353 2509 1880 2686 3240 2940 3224 3028 2908 2407 1849 1287 1038 419 490 830 837 355 310 705 1027 724 655 619
0 0 0 1 30 24 38 126 311 528 805 1635 1632 1789 2091 2433 2091 2538 2839 2854 3011 2693 2861 2341 2633 2445 2219 1850 2681 3296 3098 2963 2551 2174 1650 1429 1375 1076 647 690 714 941 847 887 705 827 782 575 709
3 0 0 2 13 34 106 98 19 307 617 1543 1815 1837 2272 2581 2593 2843 3062 3109 2713 2944 3027 3051 2969 2665 2086 3104 3222 3024 2864 2398 2492 2020 1864 1695 1372 1274 1235 822 809 428 541 458 272 473 825 713 796

GFSSGP_con_sbcape_084.txt.gz
CAPE
1063 960 567 577 979 781 0 5 55 317 340 335 456 532 468 59 173 504 848 1643 2389 2715 3031 3258 3739 3758 3266 3148 2853 2458 2246 1960 1963 1717 1739 1335 1592 1565 1584 1574 1575 1564 1391 1342 1437 1663 840 602 1087
808 476 476 777 1052 0 6 33 45 227 305 369 606 774 874 1046 1095 849 1312 1867 2275 2648 2691 3113 3723 3726 3467 3258 2935 2472 2050 1907 2094 1859 1794 1555 1873 1727 1630 1639 1531 1638 1524 1519 1728 1385 973 669 1420
286 343 803 1342 1204 0 6 0 106 118 267 255 334 545 816 1058 810 805 975 1570 1935 2029 2365 2889 3565 3467 3177 3011 3132 2792 2358 2145 2331 2101 1854 1933 1748 1617 1736 1571 1657 1934 1552 1655 1374 841 920 990 1269
497 1682 1266 1253 289 0 0 0 167 193 209 249 411 743 667 1023 1049 640 1084 1275 1308 1594 2108 3273 3498 2971 2681 2658 2796 2632 2425 2526 2428 2278 2056 1944 1946 1696 1752 1836 1673 1628 1460 1645 1239 761 1004 1179 1049
6 548 546 1025 244 0 0 39 224 267 285 431 598 595 566 809 818 603 843 734 972 1373 2079 2727 3412 3470 3326 3130 2865 2621 2626 2607 2323 2161 2055 1953 1860 1780 1787 1867 1825 1444 1608 1639 827 615 588 857 812
101 41 291 30 14 0 0 7 140 344 405 577 564 525 529 858 661 602 470 468 956 1182 1974 2290 2855 3051 2688 2475 2474 2496 2452 2412 2273 2620 2246 2144 2029 1940 1773 1682 1685 1835 1535 1458 928 978 850 991 853
464 805 717 121 13 0 0 0 0 212 476 597 534 449 481 525 545 686 446 940 1124 1487 1763 2090 2204 2154 2503 2493 2587 2535 2654 2666 2434 2039 1750 2008 1969 1704 1689 1717 1645 1806 1564 1532 1101 1470 1020 1414 1193
1062 771 189 8 3 3 0 47 0 34 324 646 463 404 482 485 418 936 958 906 1006 1340 1666 1869 2047 1922 1847 2003 2773 2689 2505 2458 2449 2182 1895 1828 1601 1712 1566 2073 2262 1618 1727 1655 1445 1159 1509 1318 1469
305 167 241 217 74 51 41 48 20 40 178 365 465 415 374 455 467 839 1103 884 788 771 1399 1608 1527 1471 1570 1657 2032 2851 2384 2285 2175 2009 2102 2012 1237 1458 1412 1636 1700 1655 1720 1622 1220 1609 1296 1382 1340
282 22 185 169 115 76 50 3 2 13 181 401 512 430 444 445 475 1051 1362 1262 1085 981 921 1123 1288 1317 1327 1816 1763 1974 1616 1671 1527 1648 1384 1269 1082 937 1208 1604 1620 1642 1556 1612 1361 1597 1689 1324 707
1 52 16 4 38 55 72 48 0 0 86 402 441 431 451 426 375 771 1363 1334 1153 1230 1233 1199 1202 1146 1174 1360 1313 1455 1386 1265 1200 1240 1243 1084 1121 509 652 906 1002 1034 1624 1135 1663 1736 1529 1288 578
0 0 0 0 0 18 81 46 35 4 34 346 447 415 422 392 384 450 450 1173 1249 1253 1250 1261 1350 1296 1181 1176 1274 1269 1244 1002 962 1015 1220 1208 700 215 239 454 680 816 969 875 1002 894 1009 823 825
0 0 0 0 0 0 72 96 60 19 12 422 417 391 377 397 453 477 540 386 1004 1196 1177 1307 1260 1259 1317 1389 1439 1128 1020 1044 848 877 492 778 442 231 179 356 532 603 568 681 473 569 551 490 322
0 0 0 0 0 0 13 9 66 59 21 305 284 307 335 350 551 605 613 513 432 954 1005 1246 1211 1044 884 1218 1214 1193 970 1112 926 624 129 362 268 314 127 169 244 539 454 343 401 368 364 304 321
0 0 0 0 0 0 0 0 0 63 31 207 217 252 332 373 574 692 641 583 443 412 1048 1012 1138 996 1008 1115 1240 1175 1125 1150 868 682 85 15 258 231 174 19 155 171 221 315 268 285 244 195 207
0 0 0 0 0 0 0 0 0 96 117 152 247 241 379 413 554 725 632 588 491 494 966 1112 1181 1227 1158 1161 1124 1100 882 834 1039 662 210 84 5 12 11 17 57 96 228 291 220 185 309 167 228
0 0 0 0 0 0 0 0 4 40 117 148 155 206 353 421 485 576 661 474 574 667 1083 1204 1230 1194 1487 1481 1199 670 704 529 360 398 636 313 113 25 0 0 1 86 234 198 390 261 187 113 145
0 0 0 0 0 0 0 0 3 7 121 176 155 131 201 280 365 401 513 450 610 894 1097 1175 1420 1269 1629 1780 1037 530 272 100 0 32 209 683 359 124 0 6 0 0 26 250 339 336 329 133 109
0 0 0 0 0 0 0 0 5 3 25 110 121 139 175 201 244 285 434 650 684 1210 1249 1313 1514 1652 1801 1693 1210 533 427 169 82 228 518 744 570 267 107 33 6 0 20 146 228 303 345 405 115
0 0 0 0 0 0 0 0 0 0 0 0 4 85 196 239 228 250 530 883 874 1341 1325 1450 1641 1902 2021 1828 1229 788 194 52 0 119 449 959 876 408 117 67 12 0 12 1 83 8 85 54 67
0 0 0 0 0 0 0 0 0 0 0 0 0 7 117 295 323 360 559 1119 1115 1382 1310 1539 1870 2114 2181 1518 696 225 272 210 413 627 646 1025 809 398 141 26 23 1 2 28 28 0 0 15 0
0 0 0 0 0 0 0 0 0 0 0 0 0 19 125 228 364 480 504 1154 1415 1515 1503 1592 2200 2519 2060 1036 606 306 127 79 48 496 561 674 916 426 175 66 7 10 15 7 0 0 0 0 0
0 0 0 0 0 0 0 0 0 0 0 0 0 0 254 220 336 562 553 913 1635 1735 1661 1851 2509 2729 1812 1057 901 590 354 148 363 467 796 480 574 412 257 123 21 20 0 0 0 0 0 0 0
0 0 0 0 0 0 0 0 0 0 0 0 0 413 445 384 474 481 596 1064 1932 2302 1984 2620 2973 2716 2279 1454 1045 992 1058 979 1173 733 878 526 561 319 426 337 111 34 3 0 0 0 4 4 26
0 0 0 0 0 0 0 0 0 0 0 0 7 361 622 639 611 567 705 1352 2668 2669 2932 2266 2083 1677 1910 2023 1948 1768 1953 1551 970 685 485 414 315 238 298 332 186 181 116 67 31 34 46 128 84
0 0 0 0 0 0 0 0 0 0 0 0 0 16 52 597 786 827 1078 2013 2783 3109 2143 1423 908 748 1081 1192 885 1323 1238 884 858 1099 570 506 395 210 88 17 46 200 312 299 302 234 202 133 180
0 0 0 0 0 0 0 0 0 0 0 0 0 0 73 807 1034 1128 1567 2750 3205 2128 1427 997 467 367 602 819 1022 1392 166 276 1240 1302 917 696 359 242 112 13 38 82 94 216 131 105 100 129 34
0 0 0 0 0 0 0 0 0 51 0 70 69 471 1302 1514 1740 2672 2989 2757 2018 1309 759 555 665 911 1254 1455 1638 554 356 1088 1448 1191 934 562 388 210 74 47 14 51 155 77 47 26 5 20 36
0 0 0 0 0 0 0 0 0 573 553 684 1025 2339 2054 2498 2849 2545 2264 1812 1380 1166 815 824 958 1157 1498 1490 1603 1783 1507 1393 1551 1185 681 409 232 24 0 0 11 66 53 22 67 88 77 72 27
0 0 0 0 0 0 0 0 524 48 1046 1435 1790 2648 3163 3252 3136 2696 2475 2171 1519 1213 838 895 1263 1668 1467 1370 1595 1806 1940 1611 1097 1119 637 412 218 33 0 0 0 0 8 1 1 27 85 23 14

GFSSGP_con_sbcape_087.txt.gz
CAPE
842 923 637 509 771 498 0 165 244 260 272 248 127 84 29 163 276 255 686 1483 2204 2573 2869 3261 3715 3456 3057 2756 2392 2300 2126 2021 1962 1785 1415 1719 1960 1885 1835 1770 1743 1853 1675 1527 1608 1017 653 958 964
985 796 496 779 711 0 0 14 217 276 317 522 633 698 829 1037 898 1053 1264 2021 2161 2498 2753 2895 3696 3635 3203 2883 2497 2323 2093 2046 1941 1865 1654 1863 1723 1702 1663 1657 1768 1454 1481 1619 1691 804 744 1433 768
725 506 551 1106 894 0 10 33 283 332 449 428 512 615 921 970 801 969 1236 1981 2298 2430 2589 2831 3402 3453 3090 2937 2548 2306 2019 2216 2121 2011 1741 2041 1889 2008 1884 1615 1749 1618 1730 1807 1387 1016 987 1462 1187
539 1360 1054 1106 808 28 0 27 260 323 313 513 633 679 723 841 621 643 1568 1973 2032 2151 2420 3186 3485 3085 3038 2870 2586 2340 2079 2387 2261 2106 2064 1893 1853 1823 1521 1835 1945 1588 1782 1595 955 890 1178 1333 1336
0 216 74 476 560 0 0 92 124 182 283 587 640 639 587 730 608 1110 1432 1565 1566 1904 2206 2807 3512 3476 3252 2644 2574 2379 2361 2527 2395 2130 2203 2108 1825 2033 2226 1714 1777 1539 1681 1544 916 743 1354 1156 1275
78 99 56 23 47 0 7 146 208 294 538 583 519 459 490 596 633 921 919 944 1207 1628 2211 2648 3187 3298 2912 2622 2589 2462 2538 2667 2281 2259 2171 2016 1970 1934 2029 1944 1859 1604 1912 1133 809 602 935 877 896
421 648 430 458 2 0 0 25 253 357 541 613 501 429 402 405 448 607 456 508 875 1453 1993 2218 2496 2579 2822 2818 2788 2735 2530 2262 2272 2754 2325 2210 2092 2018 1892 1809 2067 1793 1587 1334 1115 916 1034 961 876
657 332 224 277 53 28 0 0 158 405 517 583 439 387 631 560 411 331 315 649 657 1377 1611 1722 1853 1688 1756 1872 2623 2450 2707 2684 2466 2238 1882 2140 2036 1716 1768 2273 2341 2002 1502 1705 1163 1636 1144 1570 1269
868 582 400 476 374 94 7 39 63 108 509 566 453 371 327 546 467 567 737 747 849 1028 1388 1587 1735 1423 1586 1877 2440 2935 2616 2621 2469 2025 1827 1778 1185 1371 1454 1641 1853 1741 1807 1803 1472 1330 1696 1431 1549
474 39 158 178 229 183 16 26 61 167 464 417 420 314 277 673 574 645 619 606 574 664 1222 1414 1466 1312 1299 1718 1748 2024 1721 1721 1600 1742 1491 1343 1110 955 1266 1535 1720 1766 1768 1767 1567 1759 1488 1221 731
161 302 53 7 8 2 19 29 20 133 243 319 309 250 269 563 698 662 607 518 378 387 835 1104 1158 1159 1210 1539 1398 1632 1349 1324 1225 1219 1201 965 960 846 843 836 1054 1042 1515 1223 1535 1469 1344 1168 613
0 0 0 0 0 0 18 13 11 121 119 205 278 228 236 416 778 874 800 738 674 556 493 720 895 947 968 942 1246 1397 1330 1014 978 937 987 971 727 327 147 234 441 501 826 925 1024 909 1056 1110 673
0 0 0 0 0 0 10 44 13 46 137 385 314 283 258 224 595 903 1012 1004 897 791 713 806 759 810 826 971 1052 1094 1198 1054 858 759 748 939 776 366 75 223 315 499 590 750 568 633 697 708 593
0 0 0 0 0 0 44 71 23 48 302 368 331 327 296 232 198 539 842 1046 980 999 973 1067 977 978 954 1013 1148 1016 957 913 626 687 582 448 449 276 104 241 290 404 371 476 418 406 439 427 366
0 0 0 0 0 0 0 2 49 67 398 445 373 336 335 283 217 231 319 703 903 1031 965 1047 1005 993 999 975 1187 1123 949 973 837 700 275 165 297 123 86 100 142 221 292 316 283 243 202 184 178
0 0 0 0 0 0 0 0 0 2 299 382 428 415 367 325 298 312 341 277 541 979 841 997 1128 850 841 901 917 1083 1113 1029 908 674 182 43 50 128 72 28 67 80 117 102 151 144 180 110 103
0 0 0 0 0 0 0 0 0 14 189 283 347 351 421 327 302 396 442 423 256 420 735 872 977 907 813 799 851 991 981 775 724 430 281 119 37 0 0 0 3 34 76 134 84 100 184 103 85
0 0 0 0 0 0 0 0 0 34 68 203 234 245 317 318 314 380 531 478 363 303 583 810 876 975 939 958 831 596 471 378 222 271 324 469 164 101 22 0 0 2 7 96 109 170 94 67 61
0 0 0 0 0 0 0 0 0 0 84 105 123 201 239 360 365 403 553 482 398 414 679 863 901 913 1166 1211 900 568 526 151 30 0 0 135 344 287 149 30 4 2 3 46 130 140 165 196 27
0 0 0 0 0 0 0 0 0 0 66 83 137 153 169 210 270 392 403 455 479 499 738 861 1002 910 1148 1299 1138 651 217 133 78 36 84 451 639 458 220 92 34 17 5 1 42 159 61 84 40
0 0 0 0 0 0 0 0 0 0 0 0 15 166 154 177 139 262 344 506 555 639 804 882 1043 1119 1135 1391 638 285 247 240 281 271 311 387 793 612 296 134 68 7 10 1 6 0 26 81 31
0 0 0 0 0 0 0 0 0 0 0 0 0 2 120 190 143 164 378 640 664 733 863 973 1141 1347 1527 1164 967 635 785 860 376 388 370 562 939 446 273 147 86 5 1 16 0 0 0 0 0
0 0 0 0 0 0 0 0 0 0 0 0 0 0 0 87 203 217 388 777 781 867 963 1049 1352 1602 1705 1263 1160 719 368 248 139 202 316 390 788 609 398 207 56 33 0 2 1 0 0 0 0
0 0 0 0 0 0 0 0 0 0 0 0 0 0 0 11 205 331 392 808 950 1062 1106 1316 1811 1997 1566 1251 916 680 590 451 497 619 742 409 365 313 370 230 41 30 12 0 0 0 0 0 0
0 0 0 0 0 0 0 0 0 0 0 0 0 0 26 92 241 428 376 1116 1302 1355 1334 1778 2149 2172 1486 1225 781 706 1195 957 768 615 374 321 208 237 295 224 69 49 36 19 0 0 0 4 5
0 0 0 0 0 0 0 0 0 0 0 0 0 0 144 205 255 315 588 1373 1687 1613 1804 2092 2339 1797 1739 1395 1298 828 267 21 2 321 547 359 293 226 85 40 59 123 114 82 29 12 9 26 54
0 0 0 0 0 0 0 0 0 0 0 0 0 0 581 411 336 438 888 1811 2005 2023 2275 1905 1323 1219 1239 997 724 401 85 0 0 4 767 543 294 290 124 0 1 85 143 107 123 148 170 144 150
0 0 0 0 0 0 0 0 0 0 2 13 0 20 212 321 806 965 1524 2437 2629 2073 1369 896 879 699 653 574 689 283 76 26 14 313 1000 805 467 294 99 42 5 0 20 115 93 77 40 120 56
0 0 0 0 0 0 0 0 0 2 591 887 2390 2332 2389 2524 2520 2586 2477 1976 1423 982 1098 640 490 548 667 918 1106 299 181 207 494 975 935 594 293 141 56 34 9 0 1 3 17 33 26 38 36
0 0 0 0 0 0 0 0 93 143 1010 2471 2905 2981 2973 2592 2252 1846 1352 1312 1157 1032 963 669 626 833 1103 1164 1330 1211 1229 1252 1387 1156 724 351 268 42 0 0 0 0 0 0 6 37 61 50 19

GFSSGP_con_sbcape_093.txt.gz
CAPE
594 398 676 808 900 79 10 35 244 216 257 232 83 86 58 124 99 213 1109 1265 1144 1738 2227 2140 2598 2515 2014 2334 2396 2508 2499 2224 2298 2321 1998 1879 1929 1609 1767 1878 1820 1534 1591 1340 909 1417 1243 1182 970
441 829 695 959 678 0 0 29 142 239 344 226 185 188 330 417 904 1235 1185 1414 1336 1872 2239 1986 2599 2631 2587 2560 2219 2430 2068 1702 1745 2123 2090 2051 1857 1702 1683 1632 1581 1445 1452 1109 825 1328 686 548 1015
568 732 747 1300 929 15 3 48 134 389 227 303 343 487 493 733 993 1029 1343 1432 1698 2037 1988 2310 3038 2639 2575 2676 2735 2514 2206 1889 1652 1820 2075 2032 1841 1801 1804 1680 1520 1592 1561 806 587 906 1096 719 1253
613 877 1122 1067 145 301 21 84 189 317 344 361 440 489 737 898 919 1068 1574 1669 1954 2072 1789 2989 3546 3160 2766 2681 2674 2753 2448 2208 1775 1894 1858 1817 1828 1636 1740 1672 1550 1660 1602 868 798 1344 921 1211 873
329 625 355 25 11 47 3 127 217 227 215 440 262 506 874 812 937 1447 1583 1547 1803 2044 1832 2681 3525 3599 3214 2842 2666 2752 2759 2283 1946 1935 2309 1943 1952 1706 1906 1754 1808 1729 1451 917 1197 1278 893 1159 1103
399 397 228 102 0 0 47 184 231 201 278 542 366 589 768 1083 1372 1630 1648 1482 1425 1771 1710 2215 3202 3575 3267 2586 2382 2280 2454 2327 2130 2099 1964 1918 1895 1596 1880 1818 1581 1642 1345 893 1148 1334 1411 1303 1214
1469 1236 671 364 2 0 9 116 239 242 345 337 302 320 837 1149 1375 1691 1792 1591 1455 1640 1719 2265 2642 2888 2981 2460 2303 2301 2603 2432 2330 2358 2376 2134 1926 1719 1753 1721 1580 1657 1596 945 1218 1421 1378 1320 1159
1390 1263 629 23 0 0 0 72 125 232 340 500 396 196 512 1044 1512 1581 1565 1536 1554 1607 1726 2152 2616 2683 2482 2453 2831 2817 2994 2647 2362 2397 2204 2181 2166 1979 1756 1629 1811 1655 1339 904 843 1237 1176 1191 1053
1493 1051 192 0 0 0 0 0 18 244 533 570 495 399 422 1083 1378 1191 1202 1283 1462 1530 1701 1875 2157 2620 2673 2385 2315 2839 2657 2465 2381 2621 2391 2310 1844 1869 1814 1682 1503 1730 1585 1120 963 879 1157 1038 967
1366 938 285 151 11 0 0 0 0 263 537 686 709 514 820 1173 1054 889 891 824 1033 1231 1433 1627 1815 2004 2289 2064 2506 2570 2319 1956 2178 2443 1846 1925 1935 1852 1487 1741 1567 1503 1590 1539 1359 1597 1288 1423 565
1133 762 563 373 139 13 0 0 0 44 409 527 750 741 894 985 962 753 522 479 728 977 1234 1473 1718 1924 1945 1844 2317 2137 2255 2480 2727 2322 2084 2186 2169 1931 1872 1880 1767 1783 1487 1565 1576 1463 1092 488 632
703 790 716 243 0 0 0 0 0 35 69 395 664 853 914 985 952 917 543 394 489 747 1035 1216 1436 1830 1863 1774 1807 2053 1921 2337 2538 2135 2423 2417 2108 2063 1904 1859 1595 1784 2232 1671 1799 1070 1469 1325 1125
512 325 2 40 0 0 0 0 0 51 57 205 580 916 839 910 958 990 769 341 405 546 753 1043 1324 1502 1523 1814 1741 2063 1919 1795 1895 1987 2228 2026 2101 1952 1472 1746 1129 1278 1194 2213 2095 1823 1258 1225 1369
0 0 0 0 0 0 0 0 9 47 38 238 692 960 852 788 927 1034 931 720 537 620 649 861 1243 1374 1427 1719 1975 1865 1899 1649 1810 1734 1909 2146 1563 1631 1731 1051 943 1246 1386 1657 1990 1938 1670 1316 927
0 0 0 0 0 0 0 0 0 13 236 275 689 912 955 855 908 1056 1057 999 936 876 811 836 1095 1242 1305 1487 1544 1445 1359 1569 1324 1473 1884 1801 1689 1813 2049 1710 1326 888 1515 1932 2077 2040 1767 1250 952
0 0 0 0 0 0 0 0 0 0 246 172 509 653 881 1056 977 1057 1116 1126 1059 1077 1065 952 749 996 1192 1247 1421 1229 1234 1285 1377 1260 1509 1621 1118 1527 1895 1535 1255 1212 1516 1960 1910 2271 1547 1128 1137
0 0 0 0 0 0 0 0 0 0 0 0 60 633 730 889 1064 1230 1245 1200 1203 1224 1368 1253 1075 1027 1172 1236 1156 1272 1502 1506 1531 1596 1482 1520 1487 1574 1627 1148 988 1540 1272 1432 1502 2088 2015 1193 1220
0 0 0 0 0 0 0 0 0 0 0 0 12 745 720 737 776 1019 1281 1305 1356 1421 1543 1601 1518 1668 1446 1289 1392 1276 1508 1788 1963 2018 1811 1725 1551 1461 1508 1232 1243 1161 1004 1149 1243 1393 1331 1562 1859
0 0 0 0 0 0 0 0 0 0 0 0 3 731 832 843 780 693 985 1235 1421 1594 1713 2054 2074 2316 1814 1490 1454 1530 1599 1700 1897 2087 1731 1756 1699 1303 1137 1166 955 773 572 700 1147 1515 1449 1203 1253
0 0 0 0 0 0 0 0 0 0 0 0 0 563 974 859 944 857 819 1008 1210 1533 2144 2086 2282 2453 2107 1838 2036 1681 1721 1773 1888 1871 1665 1816 1731 1624 1255 1130 1010 855 555 768 816 1034 1176 1211 1538
0 0 0 0 0 0 0 0 0 0 0 0 0 125 644 927 1018 1069 1158 1293 1054 1522 2067 2343 2620 2533 2525 2460 1999 1689 1624 1370 1400 1611 1657 1468 1289 1282 1492 1552 1357 1214 1088 1039 985 863 1088 1076 1186
0 0 9 7 31 0 0 0 0 0 0 0 0 8 524 844 1009 1166 1212 1198 1523 1468 1224 2008 2393 2647 2285 2669 2234 2406 1794 1709 1775 2130 1712 1459 1020 1073 960 1051 984 1121 1225 1217 1305 1061 1420 1496 1188
44 132 96 96 45 0 0 0 0 0 0 0 0 0 0 433 904 1016 1131 1546 1556 1274 1368 1788 2452 2594 2652 2411 2564 2280 2074 2443 1735 1497 1723 1803 1657 1508 1450 1395 1496 1241 1241 1128 962 603 725 1343 1101
51 43 0 0 0 13 0 0 0 0 0 0 0 0 0 0 32 765 1032 1349 1639 1516 1438 1953 2379 2587 2734 2386 2365 2588 2413 2010 1725 1691 1569 1148 1013 1571 1900 1902 1729 1696 1487 1182 844 818 728 857 804
66 57 51 28 11 17 0 0 0 0 0 0 0 0 0 0 0 0 739 1488 1721 1636 1800 1955 2565 2657 2431 2291 2379 2254 2286 2382 2017 1992 1593 851 697 1345 1986 1473 1296 1213 1361 1153 878 812 837 905 787
61 55 31 31 59 25 0 0 0 0 0 0 0 0 0 0 0 0 23 1060 1417 1640 2051 2029 2468 2660 2515 2466 2478 2454 2436 2145 1969 1993 836 800 639 1087 1884 1544 1365 1369 1202 1002 861 752 784 867 565
1 0 0 0 0 0 0 0 0 0 0 0 49 1227 1134 253 0 12 379 970 1382 1819 1868 2003 2380 2747 2534 2572 2592 2551 2618 2496 2157 1848 1387 758 1262 1418 1539 1610 1342 1100 1221 1035 870 592 881 806 824
21 0 13 3 26 4 6 1 0 0 5 5 1241 2516 2157 1384 720 975 1084 1347 1499 1568 1901 2075 2319 2666 2662 2673 2655 2727 2777 2499 1826 1218 1017 1028 1951 1793 1612 1457 1465 1297 692 649 879 780 461 120 76
1 0 0 20 0 12 4 7 50 16 258 830 2950 2757 2355 2324 1696 1734 1790 1781 1833 1981 2154 2326 2584 2635 2756 2835 2880 2852 2575 1773 1024 745 888 1378 2161 1816 1629 1515 1351 1088 1011 1126 1191 959 685 634 379
1 0 3 65 2 0 3 20 7 708 1861 2985 2928 2836 2475 2677 2470 2567 2501 2487 2421 2537 2619 2627 2810 2777 2847 2949 3026 2565 1870 1102 782 428 411 2120 2110 1656 1565 1371 1198 1028 968 942 848 598 388 567 566

GFSSGP_con_sbcape_096.txt.gz
CAPE
614 628 932 1163 1651 730 0 6 0 0 0 119 126 100 154 244 209 863 1158 1233 1079 1332 1715 2180 2600 2484 2235 2251 2630 2148 2132 2121 2075 2089 2063 2001 2096 1911 1467 1459 1683 1689 1397 1458 1496 1454 1478 1284 1358
672 812 1116 1240 1172 0 0 0 0 41 2 70 88 110 105 378 800 1367 1206 1167 1175 1308 1656 1655 2582 2538 2804 2796 2828 2812 2256 2161 1926 1873 1819 1798 1707 1663 1506 1612 1656 1685 1570 1102 1420 1394 1230 1161 945
675 1036 1443 1835 160 0 5 0 51 189 81 18 30 125 147 561 1078 984 1120 1159 1228 1447 1400 1834 2859 2648 2401 2699 2860 2657 2131 1902 2261 2134 2227 2020 1754 1761 1540 1683 1455 1515 1123 1023 1428 805 659 694 994
1147 1417 1656 1312 14 27 0 11 128 289 387 162 2 137 475 969 923 844 1127 1088 1453 1531 1413 2278 2796 2787 2456 2275 2333 2418 2278 1733 1830 1993 2007 1969 1898 1951 1788 1683 1519 1661 1189 692 896 1187 903 1260 1331
1071 1274 994 47 8 0 11 126 189 150 243 188 11 98 353 898 906 1154 1127 1196 1453 1449 1550 2311 2864 2883 2837 2400 2250 2210 2261 1873 1854 1868 1977 1867 1852 1687 1577 1738 1726 1602 1367 757 1327 1089 1262 992 892
1533 1267 437 138 10 0 7 12 333 248 385 509 113 113 471 1117 1324 1365 1213 1289 1256 1423 1537 2196 2866 3039 2834 2293 2236 2258 2271 2186 1922 2226 2161 2107 2153 1712 1680 1771 1701 1505 1046 1050 1463 1025 1315 1185 1357
2019 1957 267 26 0 0 0 0 75 240 379 387 253 95 653 954 1374 1460 1336 1169 1231 1354 1495 2176 2446 2552 2635 2634 2307 2296 2474 2278 2076 2127 2098 2113 1908 1875 1961 1787 1765 1579 1110 963 1357 1620 1385 1330 1294
1979 1860 345 7 0 0 0 0 0 35 356 587 440 109 267 844 1528 1705 1728 1388 1256 1317 1463 1837 2315 2483 2576 2407 2770 2526 2795 2367 2296 2422 2310 2090 1899 1848 1710 1894 1679 1799 1442 888 1532 1639 1499 1451 1191
2129 1584 451 18 0 11 0 0 0 30 255 798 696 390 245 921 1542 1619 1873 1714 1422 1344 1479 1643 1793 2250 2619 2507 2158 2566 2431 2541 2288 2463 2063 2120 2126 1892 1852 1658 1708 1595 1449 862 1015 1410 1378 1267 1046
1959 915 465 88 38 46 2 0 0 1 319 842 946 679 644 1351 1485 1339 1496 1428 1315 1234 1355 1455 1584 2001 2188 1824 2283 2153 2069 2332 1891 2286 2256 2029 1606 1606 1366 1763 1611 1567 1555 981 955 1022 1248 1117 607
893 815 482 349 314 125 0 0 0 0 49 678 968 1158 1168 1257 1398 1016 1004 1025 1106 1117 1232 1295 1428 1732 1798 1394 1763 1666 1967 1980 2098 2448 1979 1804 1695 1630 1152 1721 1293 1524 1617 1420 1095 1517 571 364 265
433 215 416 317 271 147 0 0 0 0 0 396 597 1219 1413 1155 1200 981 891 744 931 1060 1091 1299 1419 1601 1519 1478 1540 1817 1542 1992 2327 2107 2059 1955 1908 1670 1479 1415 1732 1726 2429 1619 1156 456 288 259 250
0 9 0 33 0 11 0 0 0 0 0 242 573 1327 1427 1306 891 1038 825 800 922 1141 1252 1410 1558 1771 1708 1841 1604 1672 1342 1728 1976 2068 2118 1800 1571 1677 1499 1379 1123 1171 1413 2806 2104 1332 559 717 367
0 0 0 0 0 0 0 0 0 0 6 189 760 1112 1372 1361 886 988 1060 827 943 1182 1417 1504 1667 1815 1832 1866 1749 1715 1490 1401 1626 1585 1633 2074 1725 2155 1299 1364 678 1683 1988 2447 1284 2314 961 596 334
0 0 0 0 0 0 0 0 0 7 44 203 671 988 1195 1384 1046 895 1212 1113 867 1106 1330 1515 1817 1757 1754 1861 1834 1745 1471 1466 1382 1256 1786 2087 2173 2534 2530 1505 951 1272 1758 2258 1704 1926 1298 996 524
0 0 0 0 0 0 0 0 0 0 0 0 0 69 680 1305 1247 929 1078 1377 1131 1135 1459 1607 1586 1718 1743 1684 1686 1532 1277 1378 1275 1146 1327 1987 2256 2165 2179 2186 1215 1059 1312 2397 1590 2175 1520 997 799
0 0 0 0 0 0 0 0 0 0 0 0 0 0 168 1024 1449 1322 1093 1302 1474 1621 1847 1957 1929 1697 1883 1838 1690 1621 1547 1452 1289 1440 1391 1708 1855 1798 2053 2122 1111 1530 1317 1470 2000 2200 1449 992 823
0 0 0 0 0 0 0 0 0 0 0 0 0 0 9 835 1560 1535 1324 1241 1515 1888 2108 2338 2252 2067 2183 2019 1962 1520 1242 1471 1504 1726 1787 1959 1670 2048 2218 2957 2239 1553 1040 994 1095 1280 1396 1196 1108
0 0 0 0 0 0 0 0 0 0 0 0 0 0 0 913 1227 1635 1549 1446 1469 1873 2271 2553 2573 3168 2449 2210 2050 1605 1198 1437 1817 1857 2083 2367 2156 2139 2654 1748 2397 2115 1473 1166 1386 1588 1510 1246 1203
0 0 0 0 0 0 0 0 0 0 0 0 0 0 0 701 1204 1584 1765 1754 1644 1939 2370 2863 3044 3236 3001 2547 2898 2118 1718 1483 1861 2071 2501 2114 2038 2348 2199 2266 2300 2190 2774 1493 1477 1768 1376 949 1110
0 0 0 0 0 7 0 0 0 0 0 0 0 0 0 794 1361 1735 1674 1936 1852 2008 2420 3034 3518 3697 3449 3476 2687 2653 2462 2373 2291 2546 2571 2659 2231 2461 2490 2242 2086 2112 1925 2866 1902 2002 1831 1501 1376
0 0 0 0 24 48 31 8 0 0 0 0 0 0 0 556 1355 1755 1866 1934 1959 2018 2415 3476 3964 4131 3608 3895 3457 3744 2698 2538 2376 2450 2362 2405 2618 2449 2376 2280 2148 2062 2676 2420 2693 2432 2491 2355 2244
0 0 0 56 121 130 89 82 5 0 0 0 0 0 0 302 1058 1516 2022 1974 1927 2005 2208 3517 3905 4501 4499 4391 3972 3334 3381 2387 2306 2762 2536 2927 2861 2413 1893 1865 1890 1756 1861 2174 2178 1891 1928 2110 2225
0 0 73 147 189 222 203 149 95 16 0 0 0 2 0 0 80 1029 1535 2118 2211 2003 1997 2573 3704 4546 4615 4153 3524 4427 4156 3400 2712 2718 2464 3399 2697 2559 2304 2198 2354 2093 2254 2338 2421 1850 1505 1500 1753
0 34 146 184 199 216 202 142 107 51 0 0 0 6 0 0 0 44 940 1598 2176 2314 2495 2196 3776 4073 3713 3408 3598 3368 3612 3627 3430 3207 3932 1889 1622 1686 2195 2664 2390 2621 2383 2305 2139 2057 1495 1396 1602
36 78 135 91 102 166 189 108 68 57 10 0 0 0 37 10 0 0 0 378 1731 2082 2969 2608 3237 3798 3503 3367 3856 3680 3619 3353 3195 3247 2921 1723 867 655 1000 2007 2219 2112 1905 1813 2162 2333 1290 1417 1786
52 15 92 64 168 142 56 196 181 24 38 85 180 728 1623 2193 2027 1634 894 142 1068 1955 2351 2613 3191 3629 3421 3377 3597 3694 3622 3555 3377 3100 3217 1878 1414 749 1364 2239 2038 2134 1943 1797 1752 2310 1185 1672 1668
18 30 128 152 188 239 34 161 233 188 133 110 448 1719 2853 2807 2414 1612 1082 721 992 1799 2139 2527 2914 3332 3358 3374 3615 3665 3622 3693 3549 3567 2682 1605 1349 1838 1871 2288 2338 2252 1972 1697 1785 2173 1433 1362 2236
115 72 48 104 158 267 299 174 217 265 219 587 1434 2751 3406 3168 2850 2053 1555 1564 1694 1840 2132 2540 2880 3257 3462 3781 3719 3786 3653 3750 3805 3148 2078 1558 1894 2256 2479 2284 2109 1945 1918 1624 1647 1564 1127 1220 1181
206 252 203 300 289 267 236 168 171 312 569 2160 2342 3213 3316 2937 3080 2926 2543 2287 2060 2092 2423 2706 3063 3372 3485 3714 3880 3764 3815 3872 3414 2320 1665 1560 2139 2544 2541 2109 1901 1713 1634 1674 1599 1366 1065 1083 933

GFSSGP_con_sbcape_102.txt.gz
CAPE
745 510 787 1226 1828 2103 5 0 0 0 0 0 0 1 53 454 180 370 587 1201 1188 1146 1576 2061 2983 3091 2835 3076 2955 2875 2572 1957 1915 2243 1752 1782 1998 1849 1477 1571 1653 1604 1420 1346 1470 1249 1504 1442 1249
543 956 1278 1639 2245 217 15 0 12 0 0 1 0 13 136 581 435 527 666 1465 1054 1290 1443 1618 2908 2974 2897 2926 2948 2835 2179 1955 2058 2162 1889 1977 1938 1391 1209 1550 1516 1596 1523 1390 1516 1508 1523 1623 1209
578 1363 1522 2489 1246 66 5 19 54 23 0 3 8 5 155 321 640 757 665 1236 1149 1226 944 1797 3061 3001 2386 2776 2769 2771 2672 2352 2100 2139 2113 2061 1825 1478 1420 1680 1398 1516 1533 1544 1339 1434 1313 1405 1314
1498 1811 1984 2629 1088 0 28 8 0 0 0 0 35 479 197 443 642 688 594 907 1219 941 1056 2355 2983 2440 2450 2802 2659 2602 2229 2257 2170 2071 1793 1771 1662 1408 1621 1383 1542 1292 1076 1616 1148 1088 797 1174 1302
1238 1652 1541 323 117 4 16 29 34 6 28 0 43 221 376 653 852 588 601 697 900 1092 1678 1932 2938 2946 2941 2928 2782 2462 2301 2288 1967 2178 1937 1824 1627 1380 1641 1489 1571 1117 801 1452 1302 690 1514 1522 1259
1576 962 42 1174 243 0 8 39 63 36 83 27 229 427 503 720 572 570 613 744 1430 1855 1275 1583 2809 3078 3004 2504 2271 1981 1649 1672 1957 2048 2035 1823 1916 1905 1699 1490 1769 1449 815 1458 1441 1156 1439 1278 961
1694 0 16 340 493 7 20 34 20 53 13 0 74 717 562 676 557 657 999 691 1803 1812 1453 1688 1870 2333 2188 2169 2272 2436 1934 1714 1763 1814 1996 1785 1640 1840 1918 2049 1591 1634 997 1587 1526 1286 1090 825 725
1797 1802 102 92 105 247 28 12 10 123 84 0 22 506 610 794 598 640 891 985 1981 1709 1423 1677 2013 2078 2197 1942 2696 2680 2842 1834 1859 2073 1822 2150 1968 1886 1668 2324 2004 1595 1008 1641 1383 1357 1371 1576 1396
1116 1175 0 0 42 196 164 38 17 12 494 317 68 310 663 832 737 699 856 893 1299 1961 1577 1573 1953 2251 2346 2121 2061 2818 2377 2360 1862 2220 2165 2093 1401 1992 1825 2073 1917 1708 927 1320 1661 1498 1855 1769 1219
613 492 58 62 0 11 490 75 18 4 627 597 404 306 799 853 1080 886 959 930 963 1003 1611 1682 1951 2484 2465 1523 2303 2058 2183 1926 2006 2069 2308 1906 1794 2147 1466 1719 1938 1972 1412 815 1599 2112 1825 1446 726
157 325 263 303 64 238 309 250 121 0 24 851 269 517 961 815 1319 1306 1079 1093 1168 1061 1181 1666 1955 2411 2146 1856 2305 1900 1959 2081 2148 2534 2533 2067 961 1393 1330 1792 1684 1880 1716 593 1410 1696 1322 1100 824
0 0 0 0 0 2 54 168 151 0 1 226 187 201 1061 836 999 1461 1515 1374 1177 1213 1102 1162 2530 2566 2266 2187 2022 2059 1839 1819 2263 2295 2504 2764 1112 1583 1931 1713 1772 2128 2129 1577 271 581 660 615 625
0 0 0 0 0 0 0 0 115 24 0 59 915 753 1153 929 929 1410 1476 1458 1316 1418 1355 1331 2685 2451 2317 2708 2197 2165 1284 2002 2002 2596 2583 2466 2118 1397 2265 1547 1908 1688 1516 1652 921 600 231 340 723
0 0 0 0 0 0 0 0 3 58 8 35 321 1565 1188 1271 1004 1143 1486 1586 1539 1580 1623 1837 2352 2924 2236 3060 3633 2681 3156 1411 2385 2290 2236 3030 3351 2103 2630 1376 1918 1742 1748 1697 1779 1722 1309 1252 615
0 0 0 0 0 0 0 0 0 0 28 26 454 876 1681 1860 1408 1280 1378 1605 1754 1743 1673 1968 2237 2630 3188 3424 3743 3685 3123 2127 933 1334 1845 2380 3056 3236 2984 2621 2553 1956 1429 1738 1522 1437 1781 2277 1117
0 0 0 0 0 0 0 0 0 0 15 77 10 518 1369 1850 1717 1588 1340 1560 1827 1818 1891 2252 1896 2354 2583 3082 3022 2925 2156 2609 2620 2338 1274 2367 2930 2998 2879 2342 2320 1846 1070 616 1354 1575 1518 1870 1545
0 0 0 0 0 0 0 0 0 0 2 181 179 362 519 1174 1965 2056 1535 1407 1592 2114 2366 2580 2384 2471 2558 2937 2751 2679 2751 2636 1669 2105 1821 2775 2650 2696 2808 2167 1782 423 625 1262 1196 1698 1331 1320 1848
0 0 0 0 0 0 0 0 0 0 0 19 41 25 122 34 829 2111 1699 1294 1588 2370 2776 2895 2835 2948 2965 2862 2716 2104 2178 1938 1887 1548 1423 2773 2349 2747 2740 2403 2314 316 275 1013 1593 1194 1582 1592 1285
0 0 0 0 0 0 0 0 0 0 0 0 0 52 76 48 30 1659 1910 1657 1582 2403 2913 3028 3119 3334 2991 2746 2335 2342 1827 1704 1537 1626 2296 2709 2374 2071 2169 2229 2218 137 28 1005 1460 1457 1042 1078 1478
0 0 0 0 0 0 0 0 0 0 0 0 0 0 0 0 3 756 2207 1885 1747 2325 2883 3105 3198 3406 3140 2819 2513 2432 2040 1735 1570 1547 2950 2545 2520 2588 1808 2398 1918 1684 1163 1386 1517 1450 1425 1308 1260
0 0 0 0 0 0 0 0 0 0 0 1 0 0 0 0 0 378 2398 2067 1948 2077 2884 3116 3250 3389 3345 2969 2843 2812 2615 2290 1620 1652 3073 2935 2585 2687 2362 2366 2276 1714 1999 1605 1492 1977 1202 1148 1488
0 0 0 0 0 0 0 0 0 0 19 41 73 18 0 0 0 250 2566 2389 2180 2263 2818 3291 3441 3676 3508 3318 2927 2864 2518 1880 1690 1563 2127 2378 3043 2713 2630 2301 2269 1905 2269 1478 1514 1906 1790 1134 1289
0 0 0 0 0 0 0 0 1 95 256 244 6 71 3 11 0 24 2639 2601 2310 2487 2701 3405 3731 3853 3623 3382 3149 3036 2573 2335 2140 1880 2244 3324 2854 2587 2417 2293 2179 1557 2034 1955 1529 2377 2065 1277 1048
0 0 0 0 0 0 10 24 23 124 177 116 54 40 110 42 18 48 2689 2938 2597 2564 2946 3424 3872 3975 4003 3390 3689 3261 3033 2947 2534 2456 3140 3043 2859 2708 2671 1293 1045 395 728 1298 2145 2174 2172 1350 1388
0 0 0 1 2 15 21 59 194 203 85 68 35 1 54 133 367 272 2655 3052 2838 2620 2915 3169 3935 4209 4146 3764 3335 3723 3390 3367 4103 4300 3397 3120 2648 2912 2348 1438 705 326 928 1505 2062 2231 2155 1401 1016
0 0 0 8 5 0 37 31 104 160 20 111 88 34 72 350 1389 1070 2734 2901 2955 2850 2979 3141 3794 4180 4222 4141 3639 3987 3680 3373 3597 4209 3407 2887 2638 2884 2688 1584 1292 1523 2021 1808 2090 2230 1778 1702 1061
0 0 1 8 1 18 19 78 141 73 27 5 14 34 113 375 1298 1744 1456 2939 2930 2837 3052 3193 3452 4243 4243 4215 4220 3356 4210 4405 3496 4227 3908 2967 3373 2445 2040 1670 1751 1862 2214 2570 2644 2283 2238 2148 1788
0 0 0 5 64 49 65 61 134 182 276 181 232 118 0 0 4 553 1833 1337 2907 2709 2940 3089 3530 4267 4270 4191 4271 4038 4051 3934 4313 4344 3814 3395 3690 2915 1956 1816 1974 2351 2633 2561 2737 2229 2051 1854 1673
28 59 15 3 82 61 257 122 95 301 741 740 15 0 0 0 0 169 3543 3136 1814 2236 2662 3149 3360 4313 4223 4215 4187 4211 3775 4332 4048 4462 3763 4163 2906 2603 2282 2106 2302 2534 2528 2501 2651 2332 1991 1795 1637
4 75 30 31 231 117 158 180 99 192 413 288 94 0 0 2 0 2953 3500 3359 3786 2231 2311 3185 3196 4250 4183 4272 4069 4061 4327 4307 4026 4407 4289 3862 2723 2533 2846 3033 2863 2652 2424 2430 2307 2011 1574 1629 1522

GFSSGP_con_sbcape_108.txt.gz
CAPE
1317 1104 807 761 1368 1010 203 0 0 0 2 62 41 62 69 23 0 0 364 856 1294 1123 1801 2713 3105 2885 2392 2757 2871 2183 1933 1812 1991 1944 1928 1997 2095 1903 1777 1585 1616 1288 1093 883 982 1218 1166 1491 1379
935 625 606 1466 1482 667 0 0 0 0 172 292 354 362 418 669 898 609 878 1320 1493 1752 2035 2199 3167 3139 2966 3010 2788 2376 1997 1816 1944 1690 1913 1835 1961 1848 1826 1624 1557 1715 1460 1213 1391 1414 1439 1419 1417
668 778 1290 1762 692 736 20 2 0 5 23 65 133 442 603 986 762 665 1008 1346 1596 1856 1914 2076 3168 2940 2556 2930 2994 2431 2472 1831 1745 1752 2203 1758 1331 1703 1759 1671 1693 1583 1621 1644 1646 1506 1578 1484 1048
908 1713 927 186 262 346 80 51 118 126 116 349 431 561 606 924 882 848 1084 1190 1337 1473 1840 2690 3417 2650 2449 2676 2845 2671 2462 2118 1890 2015 2102 1596 1489 1794 1638 1706 1729 1619 1523 1541 1615 1635 1437 1550 1166
52 139 11 138 5 7 47 17 14 238 254 473 731 703 580 849 763 897 998 957 871 1306 1627 2588 3310 3231 3052 2852 2741 2757 2548 2071 2169 2137 2046 1865 1773 1972 1523 1777 1432 1785 1642 1605 1574 1306 1347 1196 794
35 20 3 93 22 17 1 7 14 200 461 830 671 613 423 680 671 838 957 734 832 1235 1844 2272 2897 3204 2866 2462 2466 2394 2307 2295 1783 1630 1674 1851 1734 1756 1605 1683 1150 1390 1385 1390 1283 665 1184 1285 644
0 12 117 55 52 16 21 2 9 212 476 813 767 585 500 734 743 956 880 653 974 1310 1720 1945 2094 1987 2124 2294 2047 1918 1711 1661 2355 1933 1831 1726 1596 1667 1612 1908 1438 826 1384 1090 892 1544 1488 1436 1014
253 183 110 72 13 13 0 0 0 115 448 685 668 569 489 773 782 841 598 671 1109 1224 1360 1716 1958 1994 2165 1999 2480 2407 2449 2254 2352 2121 2039 2047 1966 1746 1572 1886 2028 441 1209 1482 1219 1619 1508 1299 869
222 41 42 177 93 2 0 0 8 99 81 328 659 566 437 477 732 693 806 1094 1116 1003 1164 1476 1551 1558 1505 1579 1723 2375 1730 1906 2160 2262 1868 1666 1061 1427 1628 1731 1715 752 1622 1332 1412 1113 1035 832 699
1069 173 76 147 84 60 18 2 130 124 0 86 738 524 516 920 1080 1018 993 948 905 844 1219 1384 1301 1353 1325 1762 1729 1732 1354 1259 1340 1586 1175 1500 796 1049 1583 1562 1885 990 1571 1540 1231 1893 1013 1116 892
197 656 345 178 132 52 29 14 90 161 134 428 743 582 663 771 1345 1163 983 820 766 871 1075 1191 1233 1199 1250 1354 1230 1548 1535 1302 1138 1493 1180 1302 761 1289 1431 1303 1268 1045 815 938 1731 1542 1418 831 685
0 0 16 84 198 132 71 95 187 105 182 419 770 674 702 704 771 1422 1238 929 862 890 843 1073 1141 1123 1049 1012 1123 1259 1356 1341 1099 1184 1202 1007 834 646 1025 1026 1119 1075 716 241 1026 1192 1143 801 699
0 0 0 0 27 170 236 231 249 0 0 658 893 728 727 698 639 641 1452 1178 972 958 878 960 991 999 1024 1006 925 965 1240 1106 1013 1159 1039 991 747 474 539 705 977 937 755 140 508 709 823 659 441
0 0 0 0 0 0 14 29 0 0 72 306 965 812 717 621 682 664 708 1382 1118 1010 1021 1028 989 965 964 1112 844 679 847 1036 972 1018 979 1067 704 203 318 578 797 832 791 493 30 162 372 209 23
0 0 0 0 0 0 0 0 0 0 6 93 572 965 876 638 778 766 654 695 1284 1008 1058 1126 1201 1122 1002 1183 875 646 698 898 1033 973 710 767 666 410 345 615 682 713 679 596 270 0 23 0 0
0 0 0 0 0 0 0 0 0 0 0 18 117 329 992 1007 985 905 793 775 641 911 1155 1234 1507 1269 1092 1265 1024 825 796 906 814 963 921 741 696 595 551 550 551 565 693 492 338 153 36 228 273
0 0 0 0 0 0 0 0 0 0 0 0 308 219 993 1117 1187 1119 980 916 727 667 1270 1321 1512 1324 1162 1175 1242 1001 895 785 31 113 543 382 224 532 804 567 493 480 570 403 283 193 169 184 167
0 0 0 0 0 0 0 0 0 0 0 152 428 413 990 1009 1127 1270 1249 1108 891 783 1444 1549 1567 1417 1208 893 1625 1212 1014 806 414 64 275 46 0 102 803 590 468 334 352 222 137 187 149 65 50
0 0 0 0 0 0 0 0 0 0 0 0 487 671 1020 1010 1058 1008 1358 1300 1033 921 1312 1716 1629 1389 1199 1301 1382 1417 1048 938 622 538 373 160 12 104 787 698 429 140 112 178 148 152 188 302 176
0 0 0 0 0 0 0 0 0 0 0 0 0 0 620 1191 1130 1033 1122 1342 1167 1022 974 1702 1680 1406 1397 1353 1289 1285 1171 801 843 619 662 523 339 462 855 686 500 105 12 1 50 173 172 131 122
0 0 0 0 0 0 0 0 0 0 0 0 0 0 0 7 40 970 1068 1370 1354 1188 1036 1353 1589 1525 1466 1232 1299 1016 674 752 750 498 539 753 715 892 1007 784 703 148 36 3 0 135 186 188 83
0 0 0 0 0 0 0 0 0 0 0 0 0 0 0 26 113 320 1094 1246 1350 1318 1146 1240 1352 1511 1400 1407 1339 1276 1052 923 980 763 540 1077 945 1001 1081 987 858 658 154 96 38 76 323 132 163
0 0 0 0 0 0 0 0 0 0 0 0 0 0 56 31 101 422 566 379 1002 1418 1280 1233 1321 1522 1445 1453 1360 1343 1210 861 698 813 461 901 1121 930 1019 876 922 858 480 385 246 289 235 149 197
0 0 0 0 0 0 0 0 0 14 0 0 0 4 17 109 192 261 267 448 494 1237 1415 1341 1368 1769 1698 1600 1522 1336 1358 1236 736 709 530 928 1203 1302 1110 860 761 873 744 581 447 257 247 301 238
0 0 0 0 0 0 0 0 8 59 137 44 36 94 131 1 175 431 604 808 733 1071 1476 1609 1646 1802 1953 1751 1726 1461 1257 1211 997 777 647 698 1255 1349 1284 1220 954 379 427 347 268 150 139 242 308
0 0 0 0 0 0 0 0 0 188 248 120 128 70 57 16 88 262 457 599 670 118 1385 1933 1827 1766 2121 1959 1835 1671 1432 1243 1255 931 779 560 993 1325 1359 1279 1064 388 164 96 81 93 119 343 424
0 0 0 0 0 0 0 0 28 118 196 208 121 192 158 51 14 49 330 336 546 415 27 476 1537 1868 1999 2148 1793 1833 1609 1438 1483 1108 1029 885 912 1347 1242 1101 574 243 102 0 0 13 190 517 427
0 0 0 0 0 0 0 0 0 72 172 139 125 210 229 104 49 49 43 27 118 192 76 58 605 421 1785 2466 2079 1820 1812 1632 1451 1676 1754 1292 1412 1378 1258 857 540 146 31 31 15 45 368 622 524
0 0 0 0 0 0 0 0 0 81 165 65 211 302 343 249 54 135 155 41 226 53 2 0 231 17 654 2434 2312 1952 1858 1912 1749 1345 1761 1550 1333 1294 1037 765 558 320 280 342 459 611 769 763 698
0 0 0 0 0 0 0 0 103 180 92 166 103 43 802 622 809 528 570 499 22 1 3 140 56 24 440 2484 2543 2086 1813 2388 1914 1696 1393 1497 1278 1129 904 585 461 384 418 610 837 859 999 861 715

GFSSGP_con_sbcape_111.txt.gz
CAPE
863 1386 1330 841 1291 889 274 2 0 0 14 0 58 17 15 12 0 0 88 19 1 237 656 2659 3290 2725 2302 2413 2392 2234 2425 2332 1965 2311 2430 2301 2604 2214 1658 1663 1469 1364 1296 1094 1193 999 1150 1363 1479
950 1239 1008 1162 1164 8 5 0 0 123 127 47 235 170 367 740 705 495 464 555 425 517 1595 2425 3290 3145 2625 2763 2603 2525 1915 2141 2006 2090 1849 1905 2402 2258 1517 1342 1282 1396 1128 1050 1204 1168 1444 1404 1362
1044 1017 1552 1578 341 237 32 88 41 209 235 190 382 431 743 932 618 548 934 967 709 1229 1928 2281 3040 3036 2597 2859 2804 2469 2569 2146 1860 2097 2023 1918 2000 1888 1705 1675 1764 1383 1227 1228 1423 1498 1517 1367 1065
819 1606 854 213 162 195 41 15 31 144 273 309 378 557 789 831 573 841 1210 1204 1161 1598 1756 2711 3166 2748 2806 2568 2635 2266 2149 2237 2073 2198 1926 1553 1968 1963 1829 1799 1661 1750 1633 1691 1640 1594 1613 847 808
27 25 3 80 20 19 25 23 47 118 316 591 675 613 809 782 1022 1121 1326 1295 1383 1532 1629 2366 3289 3148 3095 2732 2550 2622 2540 2206 2132 2142 1883 1521 1851 1791 1700 1808 1751 1681 1731 1708 1716 1468 1587 952 1190
0 0 2 77 52 2 0 0 4 17 498 847 723 657 645 1007 1150 1165 1158 1150 1244 1391 1730 2322 2912 3120 2829 2514 2461 2343 2199 2063 2198 2252 2100 1975 2029 1815 1951 1625 1896 1780 1664 1702 1649 1535 1302 818 1015
0 17 129 119 0 14 18 2 18 153 775 799 808 579 685 958 1044 1085 945 801 1088 1203 1887 2190 2231 2268 2504 2620 2574 2379 2021 2396 2009 1889 1899 2022 2005 1801 1752 1653 1253 1740 1416 1649 1282 688 1276 756 578
116 136 195 52 0 25 8 0 0 127 268 852 778 544 816 817 992 956 673 655 848 1152 1729 1927 1978 1750 1893 2099 2971 2974 2936 2232 1856 1933 1917 1919 1835 1739 1795 2170 1663 1722 1146 802 935 1399 1556 1296 1099
234 10 59 13 49 35 7 0 67 114 131 212 606 496 521 861 1073 831 593 887 1006 1185 1477 1656 1715 1303 1408 1556 1939 2647 1898 1800 2671 2155 2075 2016 1345 1323 1345 1620 1407 681 1282 1377 1383 1633 1584 1421 887
817 9 38 94 72 122 5 6 46 61 9 17 42 557 1033 1021 1064 716 777 950 1052 1040 1218 1443 1546 1624 1493 1733 1568 1673 1660 1798 1816 1888 1571 1315 1071 1124 1513 1632 1769 584 1534 1350 1528 1239 1252 825 438
701 618 240 193 100 32 20 26 7 68 52 11 691 540 1012 1079 977 771 954 979 969 894 1144 1323 1252 1432 1464 1580 1287 1321 1007 994 1123 1435 1031 1218 759 1497 1714 1256 1494 492 1469 1153 1394 1382 849 526 686
53 103 118 167 228 300 169 43 33 57 74 53 423 597 945 1058 1018 962 1012 982 891 757 975 1149 1071 1197 1260 1313 1307 1399 1311 1051 1017 1269 991 1204 645 1022 1188 1087 923 807 333 648 1122 975 1025 813 638
0 0 0 0 0 98 214 110 80 94 43 25 521 633 1004 1169 1083 1174 1024 958 809 760 838 1006 998 1036 1104 797 1150 1236 1368 1291 999 1088 1035 930 763 610 864 923 974 930 554 128 544 819 869 767 620
0 0 0 0 0 0 67 47 25 0 0 16 578 605 740 1278 1534 1417 1131 950 825 713 709 932 992 893 898 855 747 926 1192 1240 926 898 1059 886 707 453 509 618 846 803 690 208 138 465 544 534 379
0 0 0 0 0 0 0 0 0 0 238 636 575 574 636 791 1009 1324 1385 1051 936 815 651 872 874 816 755 833 666 614 675 952 856 803 860 938 664 351 326 492 613 809 679 574 36 41 45 86 8
0 0 0 0 0 0 0 0 0 0 0 0 615 584 672 700 631 787 1537 1290 1067 971 820 828 793 850 765 852 803 490 448 742 833 821 747 759 732 407 127 322 503 508 518 497 336 12 0 0 0
0 0 0 0 0 0 0 0 0 0 0 0 487 657 707 720 595 685 764 1529 1364 1100 985 915 765 847 835 890 893 656 501 612 911 901 879 618 702 625 356 316 426 405 549 436 293 109 44 0 1
0 0 0 0 0 0 0 0 0 0 0 0 1 355 773 787 753 677 771 842 1333 1228 1046 1045 943 1001 911 947 1027 800 624 710 544 541 866 748 565 654 617 578 449 400 493 426 49 156 23 55 21
0 0 0 0 0 0 0 0 0 0 0 0 197 100 245 780 891 774 871 843 746 1148 1058 1180 1115 1212 1004 964 1159 1059 935 777 471 95 451 379 116 96 567 608 410 324 449 428 95 87 79 53 0
0 0 0 0 0 0 0 0 0 0 0 0 0 178 282 483 742 876 1011 999 905 731 1032 1342 1274 1341 1159 971 1078 1301 1097 907 749 494 199 291 164 0 287 642 361 245 201 154 76 90 62 70 20
0 0 0 0 0 0 0 0 0 0 0 0 0 0 0 67 472 780 779 1182 1133 913 1142 1466 1439 1473 1309 1097 973 1100 906 747 720 664 675 465 346 134 93 608 564 215 122 80 29 59 66 86 21
0 0 0 0 0 0 0 0 0 0 0 0 0 0 0 3 60 236 29 756 1317 1132 950 1397 1541 1575 1362 1153 1052 1249 1315 1321 1182 1034 764 649 656 496 381 522 637 361 102 55 14 22 102 65 61
0 0 0 0 0 0 0 0 0 0 0 0 0 0 1 22 34 54 138 637 989 1227 1062 939 1565 1561 1422 1280 1200 1112 1187 1157 1095 994 650 759 866 802 895 832 709 607 247 194 64 20 54 121 129
0 0 0 0 0 0 0 0 0 0 0 0 0 0 0 52 98 218 440 685 827 698 1119 1008 1164 1496 1430 1382 1244 1161 1109 1007 764 735 600 569 931 951 857 972 842 763 619 446 218 96 65 137 187
0 0 0 0 0 0 0 0 0 0 17 9 0 0 0 0 20 199 433 533 759 620 892 1199 1138 1264 1424 1337 1368 1140 1083 976 778 721 795 594 844 999 1050 918 788 740 797 591 336 174 127 191 195
0 0 0 0 0 0 0 0 0 6 50 30 0 5 0 126 69 60 194 346 530 481 1076 1380 1172 1225 1479 1370 1361 1229 1031 1053 830 617 684 611 664 885 925 1115 967 757 603 339 168 222 172 121 110
0 0 0 0 0 0 0 0 0 19 15 28 33 76 185 137 176 323 182 198 305 508 565 1605 1499 1417 1648 1622 1468 1473 1123 938 945 757 611 570 552 751 925 1119 1165 951 508 155 77 28 13 28 46
0 0 0 0 0 0 0 0 0 0 12 26 196 238 360 326 464 426 501 448 219 334 241 370 839 856 1115 2010 1700 1567 1428 1131 940 799 696 658 533 590 931 1071 1082 851 426 52 0 0 0 49 95
0 0 0 0 0 0 0 0 0 3 47 51 58 2 439 734 920 709 606 536 299 117 32 281 187 142 214 715 2031 1771 1683 1480 1201 1092 1026 707 807 686 996 1109 905 574 289 31 0 0 1 46 113
0 0 0 0 0 0 0 0 0 43 25 127 28 0 118 966 391 228 164 379 660 0 85 55 239 359 351 598 1364 2013 1751 1718 1454 1301 1138 1435 970 970 1008 1021 821 586 285 92 28 75 260 240 344